DW7857 Weather Reports


time (UTC)temp
C
wind
direction
speed
KPH
gust
KPH
rain 1hr
cm
rain 24hr
cm
rain mn
cm
humidity
%
barometer
mb
20260509031803 7 45 0.0 1.6 0.00 0.00 0.00 83 1015.7
20260509030903 8 45 0.0 1.6 0.00 0.00 0.00 83 1015.5
20260509030004 7 0 0.0 0.0 0.00 0.00 0.00 82 1015.8
20260509025403 8 45 0.0 1.6 0.00 0.00 0.00 82 1015.6
20260509024503 8 45 1.6 3.2 0.00 0.00 0.00 82 1015.5
20260509023603 8 45 0.0 3.2 0.00 0.00 0.00 82 1015.6
20260509022703 8 0 0.0 0.0 0.00 0.00 0.00 82 1015.4
20260509021803 8 45 0.0 1.6 0.00 0.00 0.00 82 1015.8
20260509020903 8 45 0.0 1.6 0.00 0.00 0.00 83 1015.8
20260509020003 8 45 1.6 3.2 0.00 0.00 0.00 83 1015.8
20260509015403 8 45 0.0 1.6 0.00 0.00 0.00 83 1015.9
20260509014503 9 45 1.6 3.2 0.00 0.00 0.00 83 1015.8
20260509013603 9 45 3.2 3.2 0.00 0.00 0.00 82 1016.0
20260509012703 8 45 1.6 3.2 0.00 0.00 0.00 82 1015.9
20260509012013 8 45 0.0 3.2 0.00 0.00 0.00 81 1015.9
20260509010903 9 45 0.0 3.2 0.00 0.00 0.00 81 1015.6
20260509010003 9 45 0.0 1.6 0.00 0.00 0.00 81 1015.8
20260509005403 9 45 0.0 1.6 0.00 0.00 0.00 81 1015.9
20260509004503 9 0 0.0 0.0 0.00 0.00 0.00 81 1016.0
20260509003603 9 0 0.0 0.0 0.00 0.00 0.00 81 1015.9
20260509002704 9 45 0.0 3.2 0.00 0.00 0.00 81 1015.8
20260509002013 9 0 0.0 0.0 0.00 0.00 0.00 81 1015.8
20260509000903 9 0 0.0 0.0 0.00 0.00 0.00 81 1016.1
20260509000004 9 0 0.0 0.0 0.00 0.00 0.00 80 1016.1
20260508235613 9 45 0.0 1.6 0.00 0.00 0.00 80 1016.0
20260508234503 9 0 0.0 0.0 0.00 0.00 0.00 80 1016.1
20260508233814 9 0 0.0 0.0 0.00 0.00 0.00 80 1015.8
20260508232703 9 0 0.0 0.0 0.00 0.00 0.00 80 1015.9
20260508231803 9 0 0.0 0.0 0.00 0.00 0.00 79 1016.1
20260508230903 9 0 0.0 0.0 0.00 0.00 0.00 79 1016.0
20260508230004 10 45 0.0 1.6 0.00 0.00 0.00 79 1015.8
20260508225613 10 45 0.0 1.6 0.00 0.00 0.00 79 1016.0
20260508224503 10 45 0.0 1.6 0.00 0.00 0.00 78 1015.8
20260508223603 10 45 0.0 1.6 0.00 0.00 0.00 79 1015.9
20260508222703 10 45 0.0 3.2 0.00 0.00 0.00 78 1015.9
20260508221803 10 45 0.0 1.6 0.00 0.00 0.00 77 1016.0
20260508220903 10 45 1.6 3.2 0.00 0.00 0.00 76 1015.9
20260508220003 11 45 0.0 1.6 0.00 0.00 0.00 75 1016.0
20260508215403 11 45 0.0 1.6 0.00 0.00 0.00 75 1016.1
20260508214503 11 0 0.0 0.0 0.00 0.00 0.00 74 1015.7
20260508213614 11 45 0.0 1.6 0.00 0.00 0.00 73 1015.8
20260508212703 11 0 0.0 0.0 0.00 0.00 0.00 73 1015.9
20260508211803 11 45 0.0 1.6 0.00 0.00 0.00 72 1015.9
20260508210903 11 45 0.0 1.6 0.00 0.00 0.00 72 1015.9
20260508210003 11 0 0.0 0.0 0.00 0.00 0.00 71 1015.8
20260508205403 11 0 0.0 0.0 0.00 0.00 0.00 71 1015.8
20260508204503 11 0 0.0 0.0 0.00 0.00 0.00 70 1015.8
20260508203812 12 45 0.0 3.2 0.00 0.00 0.00 70 1015.7
20260508202703 12 63 0.0 3.2 0.00 0.00 0.00 68 1015.4
20260508201803 12 0 0.0 0.0 0.00 0.00 0.00 63 1015.4
20260508200903 12 60 0.0 1.6 0.00 0.00 0.00 62 1015.6
20260508200003 13 97 0.0 1.6 0.00 0.00 0.00 61 1015.5
20260508195403 13 160 1.6 3.2 0.00 0.00 0.00 61 1015.3
20260508194503 13 303 0.0 1.6 0.00 0.00 0.00 60 1015.3
20260508193615 13 315 0.0 1.6 0.00 0.00 0.00 60 1015.0
20260508192913 14 281 1.6 3.2 0.00 0.00 0.00 59 1015.0
20260508191803 14 283 1.6 3.2 0.00 0.00 0.00 59 1014.9
20260508190903 15 322 0.0 3.2 0.00 0.00 0.00 58 1014.7
20260508190003 15 189 3.2 6.4 0.00 0.00 0.00 56 1014.7
20260508185403 15 173 3.2 6.4 0.00 0.00 0.00 55 1014.6
20260508184504 16 203 3.2 6.4 0.00 0.00 0.00 57 1014.7
20260508183603 16 162 4.8 12.9 0.00 0.00 0.00 58 1014.4
20260508182913 16 182 6.4 12.9 0.00 0.00 0.00 57 1014.4
20260508182012 17 201 4.8 9.7 0.00 0.00 0.00 57 1014.6
20260508180903 17 146 4.8 9.7 0.00 0.00 0.00 57 1014.5
20260508180003 17 180 8.0 11.3 0.00 0.00 0.00 59 1014.5
20260508175403 17 199 6.4 9.7 0.00 0.00 0.00 59 1014.2
20260508174503 17 183 6.4 9.7 0.00 0.00 0.00 58 1014.4
20260508173603 17 154 6.4 12.9 0.00 0.00 0.00 54 1014.1
20260508172703 18 87 6.4 8.0 0.00 0.00 0.00 55 1014.0
20260508171803 17 204 6.4 8.0 0.00 0.00 0.00 55 1013.9
20260508170903 18 147 6.4 8.0 0.00 0.00 0.00 53 1014.2
20260508170003 18 213 8.0 12.9 0.00 0.00 0.00 53 1013.9
20260508165403 18 186 6.4 12.9 0.00 0.00 0.00 52 1014.2
20260508164503 18 232 6.4 9.7 0.00 0.00 0.00 52 1013.9
20260508163603 18 124 4.8 6.4 0.00 0.00 0.00 51 1014.0
20260508162703 18 192 8.0 11.3 0.00 0.00 0.00 51 1013.5
20260508161803 18 73 6.4 9.7 0.00 0.00 0.00 51 1013.7
20260508161113 19 230 6.4 9.7 0.00 0.00 0.00 50 1014.0
20260508160003 18 236 9.7 14.5 0.00 0.00 0.00 51 1013.8
20260508155403 18 214 8.0 14.5 0.00 0.00 0.00 50 1013.6
20260508154503 18 171 6.4 11.3 0.00 0.00 0.00 51 1013.7
20260508153603 19 196 6.4 14.5 0.00 0.00 0.00 51 1013.9
20260508152703 19 185 8.0 12.9 0.00 0.00 0.00 52 1014.1
20260508151803 19 207 9.7 12.9 0.00 0.00 0.00 50 1014.0
20260508150903 19 218 8.0 11.3 0.00 0.00 0.00 50 1014.0
20260508150004 18 145 8.0 11.3 0.00 0.00 0.00 50 1013.8
20260508145403 18 155 8.0 11.3 0.00 0.00 0.00 50 1013.9
20260508144503 18 153 9.7 12.9 0.00 0.00 0.00 46 1014.1
20260508143603 18 129 8.0 12.9 0.00 0.00 0.00 46 1013.8
20260508142703 18 165 8.0 12.9 0.00 0.00 0.00 46 1013.9
20260508141803 18 182 11.3 17.7 0.00 0.00 0.00 46 1014.1
20260508140903 18 178 12.9 17.7 0.00 0.00 0.00 46 1014.0
20260508140003 18 183 11.3 16.1 0.00 0.00 0.00 46 1014.1
20260508135403 18 186 11.3 16.1 0.00 0.00 0.00 46 1014.0
20260508134503 19 174 9.7 14.5 0.00 0.00 0.00 49 1013.9
20260508133603 18 146 11.3 14.5 0.00 0.00 0.00 45 1014.1
20260508132703 18 171 9.7 12.9 0.00 0.00 0.00 50 1013.9
20260508131803 18 168 9.7 19.3 0.00 0.00 0.00 47 1013.9
20260508130903 18 203 11.3 14.5 0.00 0.00 0.00 50 1013.9
20260508130003 18 217 11.3 14.5 0.00 0.00 0.00 47 1013.7
20260508125403 18 149 9.7 14.5 0.00 0.00 0.00 49 1013.7
20260508124503 18 170 9.7 12.9 0.00 0.00 0.00 50 1014.1
20260508123604 17 209 11.3 16.1 0.00 0.00 0.00 49 1013.9
20260508122703 17 250 14.5 19.3 0.00 0.00 0.00 50 1013.8
20260508121803 18 250 11.3 16.1 0.00 0.00 0.00 49 1013.7
20260508120903 18 187 8.0 16.1 0.00 0.00 0.00 50 1013.7
20260508120003 18 165 8.0 12.9 0.00 0.00 0.00 50 1013.8
20260508115403 17 183 9.7 17.7 0.00 0.00 0.00 51 1013.7
20260508114503 17 207 9.7 17.7 0.00 0.00 0.00 52 1013.7
20260508113603 17 242 11.3 17.7 0.00 0.00 0.00 55 1013.7
20260508112703 17 129 9.7 12.9 0.00 0.00 0.00 51 1013.8
20260508111803 17 183 9.7 12.9 0.00 0.00 0.00 52 1014.0
20260508110903 17 194 9.7 12.9 0.00 0.00 0.00 56 1013.8
20260508110004 17 192 11.3 17.7 0.00 0.00 0.00 58 1013.6
20260508105614 17 194 11.3 17.7 0.00 0.00 0.00 57 1013.8
20260508104503 17 168 9.7 12.9 0.00 0.00 0.00 55 1013.8
20260508103813 16 181 9.7 12.9 0.00 0.00 0.00 58 1013.8
20260508102703 16 188 9.7 12.9 0.00 0.00 0.00 57 1013.5
20260508101803 17 140 6.4 12.9 0.00 0.00 0.00 58 1013.6
20260508100903 16 173 8.0 12.9 0.00 0.00 0.00 60 1013.6
20260508100003 16 104 8.0 12.9 0.00 0.00 0.00 61 1013.7
20260508095403 16 178 8.0 12.9 0.00 0.00 0.00 62 1013.6
20260508094503 16 138 8.0 12.9 0.00 0.00 0.00 61 1013.5
20260508093604 16 181 6.4 9.7 0.00 0.00 0.00 63 1013.2
20260508092914 16 139 6.4 9.7 0.00 0.00 0.00 66 1013.3
20260508091803 16 106 6.4 9.7 0.00 0.00 0.00 68 1013.5
20260508090903 15 61 6.4 12.9 0.00 0.00 0.00 72 1013.4
20260508090003 14 121 6.4 9.7 0.00 0.00 0.00 70 1013.6
20260508085403 15 102 4.8 8.0 0.00 0.00 0.00 69 1013.6
20260508084713 15 60 3.2 8.0 0.00 0.00 0.00 71 1013.8
20260508083603 14 87 4.8 9.7 0.00 0.00 0.00 73 1013.5
20260508082913 14 76 3.2 6.4 0.00 0.00 0.00 76 1013.5
20260508081803 13 166 3.2 6.4 0.00 0.00 0.00 76 1013.4
20260508080903 13 83 3.2 4.8 0.00 0.00 0.00 76 1013.7
20260508080003 12 141 3.2 4.8 0.00 0.00 0.00 75 1013.6
20260508075404 13 137 3.2 6.4 0.00 0.00 0.00 75 1013.6
20260508074503 13 289 1.6 6.4 0.00 0.00 0.00 75 1013.4
20260508073603 13 13 1.6 3.2 0.00 0.00 0.00 75 1013.4
20260508072703 13 37 3.2 4.8 0.00 0.00 0.00 76 1013.2
20260508072012 13 41 3.2 4.8 0.00 0.00 0.00 79 1013.2
20260508071114 12 332 3.2 4.8 0.00 0.00 0.00 77 1013.4
20260508070003 12 65 1.6 3.2 0.00 0.00 0.00 75 1013.3
20260508065403 12 65 3.2 3.2 0.00 0.00 0.00 74 1013.1
20260508064503 13 80 3.2 4.8 0.00 0.00 0.00 73 1013.2
20260508063603 13 328 3.2 6.4 0.00 0.00 0.00 76 1013.1
20260508062703 13 318 3.2 4.8 0.00 0.00 0.00 80 1012.9
20260508061803 13 30 3.2 6.4 0.00 0.00 0.00 85 1012.9
20260508060903 12 5 3.2 4.8 0.00 0.00 0.00 91 1013.1
20260508060213 11 324 1.6 3.2 0.00 0.00 0.00 91 1013.1
20260508055403 11 356 1.6 3.2 0.00 0.00 0.00 91 1013.2
20260508054503 10 360 1.6 3.2 0.00 0.00 0.00 90 1012.9
20260508053603 10 357 1.6 3.2 0.00 0.00 0.00 90 1012.8
20260508052703 10 315 1.6 3.2 0.00 0.00 0.00 90 1012.9
20260508051803 10 289 0.0 3.2 0.00 0.00 0.00 90 1012.9
20260508050903 9 349 1.6 3.2 0.00 0.00 0.00 89 1012.9
20260508050003 9 28 1.6 3.2 0.00 0.00 0.00 88 1012.9
20260508045614 9 14 1.6 3.2 0.00 0.00 0.00 88 1012.8
20260508044503 9 360 1.6 3.2 0.00 0.00 0.00 87 1012.7
20260508043603 10 321 1.6 3.2 0.00 0.00 0.00 87 1012.7
20260508042703 10 315 0.0 1.6 0.00 0.00 0.00 86 1012.9
20260508041803 10 315 0.0 3.2 0.00 0.00 0.00 86 1013.0
20260508040903 10 315 1.6 3.2 0.00 0.00 0.00 86 1012.7
20260508040214 10 315 0.0 1.6 0.00 0.00 0.00 86 1013.0
20260508035403 10 315 0.0 1.6 0.00 0.00 0.00 86 1013.0
20260508034713 10 315 0.0 1.6 0.00 0.00 0.00 86 1012.9
20260508033814 10 315 0.0 3.2 0.00 0.00 0.00 86 1013.1
20260508032703 10 315 0.0 3.2 0.00 0.00 0.00 86 1012.9